Regional Weather Roundup
Issued by NWS

Home | Current Version | Previous Version | Graphics & Text | Print | Product List | Glossary On
Versions: 1 2 3 4 5 6 7 8 9 10 11 12 13 14 15 16 17 18 19 20 21 22 23 24 25 26 27 28 29 30 31 32 33 34 35 36 37 38 39 40 41 42 43 44 45 46 47 48 49 50
000
ASUS43 KMKX 280700
RWRWI

WISCONSIN REGIONAL WEATHER ROUNDUP
NATIONAL WEATHER SERVICE MILWAUKEE/SULLIVAN WI
200 AM CDT SAT MAY 28 2016

NOTE: "FAIR" INDICATES FEW OR NO CLOUDS BELOW 12,000 FEET WITH NO
SIGNIFICANT WEATHER AND/OR OBSTRUCTIONS TO VISIBILITY.

WIZ001-002-006>008-014>016-023>028-280800-
NORTHWEST WISCONSIN

CITY           SKY/WX    TMP DP  RH WIND       PRES   REMARKS
SUPERIOR ARPT  CLOUDY    46  46 100 NE9       29.80F
ASHLAND        CLOUDY    45  44  97 NE6       29.78F FOG
HAYWARD        CLOUDY    57  55  93 CALM      29.76S
SIREN          CLOUDY    56  55  94 CALM      29.78S
CUMBERLAND     CLOUDY    57  55  94 CALM      29.76F
RICE LAKE      CLOUDY    59  57  94 CALM      29.77F FOG
CHETEK         FOG       61  61 100 CALM      29.75F VSB 1/4
LADYSMITH      CLOUDY    66  65  96 S3        29.77S
EAU CLAIRE     CLOUDY    64  63  96 CALM      29.74S FOG
MENOMONIE      FOG       63  63  99 CALM      29.75F VSB 3/4
NEW RICHMOND   CLOUDY    62  62  99 CALM      29.77S
OSCEOLA        CLOUDY    62  62 100 CALM      29.79S
$$

WIZ003>005-009-010-017-018-280800-
NORTH CENTRAL WISCONSIN

CITY           SKY/WX    TMP DP  RH WIND       PRES   REMARKS
MANITOWISH WTR NOT AVBL
ARBOR VITAE    CLOUDY    65  63  93 S6        29.79F
WOODRUFF       CLOUDY    65  63  93 S6        29.79F
RHINELANDER    CLOUDY    65  63  93 SE5       29.80F FOG
EAGLE RIVER    RAIN      64  63  96 S5        29.81S
LAND O LAKES   CLOUDY    65  63  92 SE7       29.82R
PHILLIPS       CLOUDY    65  64  94 S7        29.77S
TOMAHAWK       RAIN      65  63  94 CALM      29.79F
MEDFORD        CLOUDY    65  65 100 S5        29.77S
MERRILL        CLOUDY    66  66 100 SE5       29.79F
$$

WIZ029-030-035-036-043>047-280800-
CENTRAL WISCONSIN

CITY           SKY/WX    TMP DP  RH WIND       PRES   REMARKS
WAUSAU         CLOUDY    68  66  93 SE8       29.76F
MOSINEE        CLOUDY    64  64 100 S8        29.78F FOG
MARSHFIELD     CLOUDY    68  65  90 S8        29.75F
STEVENS POINT  CLOUDY    65  65  99 SE3       29.78F FOG
WAUPACA        CLOUDY    69  69  99 SE3       29.78F FOG
WAUTOMA        CLOUDY    67  67 100 SE5       29.78F FOG
WISC RAPIDS    CLOUDY    67  64  90 SE5       29.77F FOG
CAMP DOUGLAS   CLOUDY    66 N/A N/A E3        29.74F
$$

WIZ011>013-019>022-031-037>040-048>050-280800-
NORTHEAST WISCONSIN

CITY           SKY/WX    TMP DP  RH WIND       PRES   REMARKS
ANTIGO         FOG       64  64 100 SE9       29.81F VSB 1/4
SHAWANO        CLOUDY    66  65  94 CALM      29.79F FOG
OCONTO         CLOUDY   N/A N/A N/A CALM      29.80F
STURGEON BAY   NOT AVBL
GREEN BAY      CLOUDY    67  65  93 S6        29.80F
MANITOWOC      NOT AVBL
APPLETON       PTCLDY    66  66 100 SE8       29.78F FOG
CLINTONVILLE   CLOUDY    64  64 100 SE3       29.79F FOG
OSHKOSH        CLOUDY    68  65  90 S6        29.79F
$$

WIZ032>034-041-042-053>061-280800-
SOUTHWEST WISCONSIN

CITY           SKY/WX    TMP DP  RH WIND       PRES   REMARKS
LA CROSSE      CLOUDY    67  65  93 CALM      29.73S
SPARTA         CLOUDY    63  63 100 CALM      29.75F
VIROQUA        CLOUDY    65  65 100 SE5       29.76S
BOSCOBEL       CLOUDY    67  65  93 CALM      29.73F
PRAIRIE DU CHI CLOUDY    66  64  94 CALM      29.72F
PLATTEVILLE    CLOUDY    70  68  93 SE8       29.74F
$$

WIZ056-057-062-063-064-067-068-280800-
SOUTH CENTRAL WISCONSIN

CITY           SKY/WX    TMP DP  RH WIND       PRES   REMARKS
REEDSBURG      CLOUDY    68  67  96 CALM      29.75F
BARABOO/DELLS  CLOUDY    69  65  88 S5        29.76F
LONE ROCK      NOT AVBL
MINERAL POINT  MOCLDY    70  68  94 SE9       29.76F
MADISON        CLOUDY    71  66  84 S14       29.78S
MIDDLETON      CLOUDY    72  67  84 S9        29.78F
WATERTOWN      CLOUDY    68  67  96 S10G16    29.81S
MONROE         LGT RAIN  68  64  88 S13G23    29.79S
JANESVILLE     DRIZZLE   70  68  94 S12G17    29.80F
$$

WIZ051-052-058>065-066-070>072-280800-
SOUTHEAST WISCONSIN

CITY           SKY/WX    TMP DP  RH WIND       PRES   REMARKS
MILWAUKEE      CLOUDY    69  65  86 S10       29.83F
WAUKESHA       CLOUDY    66  63  88 S9        29.84F
MILWAUKEE/TIMM CLOUDY    68  63  83 S12       29.83F
RACINE         MOCLDY    66  63  90 SE5       29.86F
BURLINGTON     CLOUDY    67  64  91 S6        29.84S
KENOSHA        CLOUDY    69  64  84 S9        29.85F
FOND DU LAC    CLOUDY    69  66  90 S10       29.79F
SHEBOYGAN      LGT RAIN  63  61  93 S6        29.82F FOG
WEST BEND      LGT RAIN  68  64  88 S8        29.82F
JUNEAU         CLOUDY    68  66  93 SE12      29.82S
$$

LSZ147-162-280800-
LAKE SUPERIOR

STATION/POSITION TIME  TEMP    WIND        PRES    WAVE
                       AIR SEA DIR/SP/G            HT/PER
                 (UTC) (F)     (DEG/KT/KT) (MB)    (FT/S)
W MID LAKE BUOY  0550   41 38   40/ 17/ 21 1009.5F   3/ 4
DEVILS ISLAND    0600   43      80/ 14/ 16 1009.5R
SAXON HARBOR     0640   47      CALM  /  1 1008.1F
$$

LMZ867-665-643>646-280800-
LAKE MICHIGAN

STATION/POSITION TIME  TEMP    WIND        PRES    WAVE
                       AIR SEA DIR/SP/G            HT/PER
                 (UTC) (F)     (DEG/KT/KT) (MB)    (FT/S)
CHAMBERS ISLAND  0640   61     160/  3/  9 1009.8F
N MID LAKE BUOY  0550   53 47  140/ 10/ 12 1011.1F   1
NORTHPORT PIER   0600   58     150/  9/ 14 1010.8F
SISTER BAY       0620   62     170/ 14/ 22   N/A
ALGOMA LAKESHORE 0517             CALM       N/A
KEWAUNEE LAKESHO 0600   53                 1009.8F
SHEBOYGAN LAKESH 0600   57     180/ 18/ 19 1010.4F
PORT WASHINGTON  0640   58     180/  4/  7 1010.8F
S MID LAKE BUOY  0550   56 50  160/ 12/ 14 1011.4F   1/ 3
KENOSHA   LAKESH 0600   57     170/ 11/ 13 1010.8F
$$

TC  - TEMPERATURE IN CELSIUS
VSB - VISIBILITY IN STATUTE MILES
WCI - WIND CHILL INDEX
HX  - HEAT INDEX




USA.gov is the U.S. government's official web portal to all federal, state and local government web resources and services.